星链-32278 (STARLINK-32278)

导读 | 豆包AI

STARLINK-32278是美国SpaceX公司星链(Starlink)星座中的第二代低轨互联网卫星,于2024年8月4日发射升空。它运行在约550公里高度的近地轨道,采用平板设计与相控阵天线,配备星间激光链路和高效离子推进系统,为全球提供高速低时延宽带互联网接入服务,支撑星链覆盖全球偏远地区网络的星座目标,推动卫星互联网的全球化布局。

基本信息
目录编号:
60356
目录名称:
STARLINK-32278
国际标识:
2024-138B
轨道中心:
EARTH
卫星名称:
星链-32278 (STARLINK-32278)
卫星全名:
星链-32278 (STARLINK-32278)
卫星状态:
在轨 (已飞行588 天)
发射日期:
2024-08-04 UTC
国别 :
美国 (US)
星等 :
--
轨道信息
数据来源 国际轨道数据 AOE轨道数据
星历时间 2026-03-15T21:45:54+0800
7小时前
查看轨道信息
2026-03-14T01:00:00+0800
2天前
查看轨道信息
半长轴 6853.399km 6853.388km
偏心率 0.0001173 0.0001548
轨道倾角 53.159° 53.162°
近地点辐角 75.119° 43.908°
升交点赤经 282.607° 291.284°
平近点角 284.994° 115.626°
近地点 474.458km 474.19km
远地点 476.066km 476.312km
周期 94.106分钟 94.106分钟
每日圈数 15.301844 15.301881
详细信息
卫星平台:
Starlink v2.0 mini
运营商:
太空探索技术公司
运营商所在国:
美国
制造商(研发单位):
太空探索技术公司
制造商所在国:
美国
使用方式:
暂无
卫星简介
星链(Starlink)计划是由太空探索技术公司(SpaceX)提出的一个巨型低轨卫星互联网星座项目,计划在2019年至2024年间在太空搭建由约1.2万颗卫星组成的“星链”网络,其中1584颗将部署在地球上空550千米处的近地轨道,并从2020年开始工作。该卫星仍在工作。
2D轨道图
3D轨道图
轨道高度分析图
轨道倾角分析图
轨道综合分析图
查看轨道综合分析图